Location: Clairmont
(55.2667°N, 118.8000°W)
Time: 09:28:49
(UTC+00:00)

N. Korean satellite - Pass Details

Date: 02 November 2020
Orbit: 453 x 503 km, 97.2° (Epoch: 03 December)

Event Time Altitude Azimuth Distance (km) Brightness Sun altitude
Rises 13:42:27 0° 14° (NNE) 2,485 10.2 -11.8°
Reaches altitude 10° 13:44:30 10° 15° (NNE) 1,605 9.3 -11.5°
Maximum altitude 13:47:56 87° 101° (E) 463 6.4 -11.0°
Drops below altitude 10° 13:51:22 10° 194° (SSW) 1,595 9.2 -10.5°
Sets 13:53:23 0° 195° (SSW) 2,467 10.1 -10.2°
